THOR AGENA B DEB, 510

Orbit data source: Space-Track

THOR AGENA B DEB, 510 is space debris in LEO originally from a launch on Sat, 29 Sep 1962 UTC launched from the Air Force Western Test Range (AFWTR). Debris objects in space refer to the collection of defunct objects orbiting the Earth. Examples of debris include non-operational satellites, rocket bodies, and fragments generated from explosions, collisions, or faulty payload assembly.

Loading next visibility...
Identifier
510, 1962-049C
Orbit
LEO
Country
Flag of USUS
Related business
Manufacturer
Unknown
Mission
Spacecraft
Bus & Motor
Unknown
Mass
Unknown
Launch date (UTC)
1962-09-29 (63 years ago)
Launch vehicle
Unknown
Launch site
Air Force Western Test Range (AFWTR)
Object type
Payload
Rocket body
Debris
Shape & HBR
Unknown shape, 0.1 m
Radar Cross Section
Small (<0.1 m²)

Expand to show TLE details & history
Last TLE update: 15 hours ago

TLE from 15 hours ago
0 THOR AGENA B DEB
1 00510U 62049C   25288.24560642  .00000097  00000-0  99508-4 0  9992
2 00510  80.5163 206.9547 0016042   7.7964 145.0347 13.70030784149124
Epoch: 2025-10-15T05:53Z
TLE epoch observation values (Epoch: 2025-10-15T05:53:40.394Z)
Latitude
26.7011°
Longitude
-90.28082°
Altitude
1,012.338 km
Speed
7.343 km/s
True Right ascension
01h 28m 38s
True Declination
26° 34' 05"
Sunlit
Object was in full shadow at epoch
Visualization orbit readout
Latitude
Unknown
Longitude
Unknown
Altitude
Unknown
Speed
Unknown
Apparent Right ascension
Unknown
Apparent Declination
Unknown
Sunlit
N/A
Visualization observer readout
Local Sidereal Time
15:22:08
Azimuth
Unknown
Elevation
Unknown
Doppler factor
Unknown
Orbital elements
Apogee altitude
1,008.555 km
Perigee altitude
984.893 km
Semi-major axis
7,374.861 km
Eccentricity
0.0016
Inclination
80.5163°
RAAN
206.9547°
Arg. of periapsis
7.7964°
True anomaly
145.13988°
Mean anomaly
145.0347°
Eccentric anomaly
145.0873°
Mean motion
3.42699 °/min
Orbital period
105.05 mins
BSTAR
0.000099508
Loading maneuver chart data...
Computing Atmospheric mass density...
Loading historical data...
Loading historical data...
Loading historical data...
Loading historical data...
Loading historical data...
Loading historical data...
Loading historical data...
Other satellites on launch #49 in the year 1962 (1962-09-29 UTC)

Documentation

Showing up to 5 results
|